Showing default

JAY-C, 62668

Orbit data source: Space-Track

JAY-C, 62668 is a Canadian payload satellite in SSO that was launched on Tue, 14 Jan 2025 UTC via an FALCON 9 launch vehicle from the Air Force Western Test Range (AFWTR). Payload-class satellites include a variety of spacecraft equipped with specific instruments for various scientific and technological missions. These include communications satellites like Starlink; space stations such as the ISS; scientific satellites like the Hubble; Earth observation satellites from companies like Planet Labs, Umbra, and HawkEye 360; GPS; miniature CubeSats for education and research; and military/defense satellites.

Loading next visibility...
Identifier
62668, 2025-009BM
Orbit
SSO
Country
Flag of CACA
Related business
Manufacturer
UTIAS-SFL
Mission
Operational Commercial Imaging
Bus & Motor
DEFIANT, Unknown motor
Mass
~35 kg wet, ~35 kg dry
Launch date (UTC)
2025-01-14 (1 year ago)
Launch vehicle
FALCON 9
Launch site
Air Force Western Test Range (AFWTR)
Object type
Payload
Rocket body
Debris
Shape & HBR
Box + 2 Pan, 0.6 m
Radar Cross Section
0.165 m², Medium (>0.1 m² and < 1m²)

Expand to show TLE details & history
Last TLE update: 14 hours ago

TLE from 14 hours ago
0 JAY-C
1 62668U 25009BM  26035.23562294  .00005436  00000-0  24611-3 0  9998
2 62668  97.4069 116.3341 0006013  87.8101 272.3824 15.21283933116158
Epoch: 2026-02-04T05:39Z
TLE epoch observation values (Epoch: 2026-02-04T05:39:17.822Z)
Latitude
0.00007°
Longitude
-102.89528°
Altitude
504.889 km
Speed
7.612 km/s
True Right ascension
07h 45m 20s
True Declination
0° 00' 00"
Sunlit
Object was in full shadow at epoch
Visualization orbit readout
Latitude
Unknown
Longitude
Unknown
Altitude
Unknown
Speed
Unknown
Apparent Right ascension
Unknown
Apparent Declination
Unknown
Sunlit
N/A
Visualization observer readout
Local Sidereal Time
21:40:20
Azimuth
Unknown
Elevation
Unknown
Doppler factor
Unknown
Orbital elements
Apogee altitude
503.066 km
Perigee altitude
494.796 km
Semi-major axis
6,877.068 km
Eccentricity
0.0006
Inclination
97.4069°
RAAN
116.3341°
Arg. of periapsis
87.8101°
True anomaly
272.31355°
Mean anomaly
272.3824°
Eccentric anomaly
272.34798°
Mean motion
3.80573 °/min
Orbital period
94.59 mins
BSTAR
0.00024611
Loading maneuver chart data...
Computing Atmospheric mass density...
Loading historical data...
Loading historical data...
Loading historical data...
Loading historical data...
Loading historical data...
Loading historical data...
Loading historical data...

Documentation

Showing up to 5 results
|